sat.trackr.live / text

‹ back to catalog

STARLINK-36548

NORAD 67617 · 2026-020A

PAYLOAD ACTIVE UNKNOWN

§ Identity

Operator
Country
US
Launch date
2026-01-30
Launch site
AFETR
Launch vehicle
Mass (kg)
RCS (m²)

Purposes: comms

External: N2YO · Heavens-Above · Gunter

§ Orbital elements

Epoch: 2026-09-19T21:51:03.825216Z

Period
94.27 min
Inclination
42.9998°
Eccentricity
0.0001368
Mean motion
15.27594075 rev/d
Perigee alt
482.1 km
Apogee alt
483.9 km
Semi-major
6,861.1 km
B*
4.1931e-4
RAAN
123.2417°
Arg perigee
264.5760°
Mean anomaly
95.4935°
Rev number
3,581

§ Raw data

STARLINK-365481 67617U 26020A   26262.91046094  .00011299  00000+0  41931-3 0  99902 67617  42.9998 123.2417 0001368 264.5760  95.4935 15.27594075 35815

JSON: /api/v1/satellites/67617 · /tle

For live sub-satellite position, see the globe view (requires WebGL).

§ Visibility from observer

Set your observer location to see the next 7 days of passes ≥ 10°. The values pass through the URL so the page stays shareable.

No JS? Fill the form by hand. The geolocation button needs JavaScript.